QPF
0.00 0.00 0.00 0.00 0.00 0.01 0.02 0.02 0.02 0.02 0.01 0.01 0.02 0.03 0.02 0.01 0.00 0.00 0.00 0.00 0.01 0.00 0.00 0.01 0.02 0.02 0.03 0.03 0.03 0.03 0.04 0.03 0.02 0.04 0.07 0.12 0.12 0.08 0.05 0.04 0.03 0.03 0.02 0.02
0.01 0.01 0.00 0.00 0.00 0.00 0.01 0.01 0.01 0.01 0.01 0.00 0.01 0.02 0.03 0.01 0.01 0.01 0.01 0.01 0.01 0.01 0.01 0.00 0.00 0.01 0.01 0.02 0.02 0.02 0.03 0.02 0.02 0.03 0.05 0.10 0.13 0.11 0.09 0.07 0.05 0.04 0.02 0.02
0.02 0.01 0.02 0.01 0.00 0.00 0.00 0.00 0.01 0.01 0.01 0.01 0.01 0.03 0.05 0.03 0.01 0.01 0.01 0.00 0.01 0.01 0.01 0.01 0.00 0.00 0.01 0.01 0.02 0.02 0.02 0.02 0.02 0.02 0.03 0.04 0.07 0.10 0.10 0.10 0.09 0.06 0.04 0.03
0.03 0.03 0.03 0.01 0.00 0.00 0.01 0.01 0.01 0.01 0.01 0.01 0.02 0.03 0.06 0.04 0.02 0.02 0.01 0.00 0.00 0.00 0.01 0.01 0.01 0.01 0.01 0.02 0.02 0.03 0.03 0.02 0.02 0.03 0.03 0.03 0.05 0.08 0.08 0.07 0.08 0.09 0.09 0.08
0.04 0.04 0.02 0.02 0.00 0.00 0.01 0.02 0.01 0.01 0.01 0.01 0.01 0.04 0.06 0.05 0.04 0.02 0.01 0.00 0.00 0.00 0.00 0.01 0.01 0.01 0.02 0.02 0.02 0.02 0.02 0.01 0.02 0.02 0.02 0.02 0.04 0.06 0.07 0.05 0.05 0.06 0.07 0.08
0.03 0.04 0.04 0.03 0.00 0.00 0.00 0.01 0.01 0.02 0.01 0.01 0.01 0.02 0.03 0.03 0.02 0.02 0.00 0.00 0.00 0.00 0.01 0.01 0.02 0.02 0.03 0.02 0.02 0.01 0.01 0.01 0.01 0.01 0.01 0.01 0.02 0.04 0.06 0.06 0.04 0.03 0.04 0.04
0.02 0.03 0.03 0.03 0.01 0.00 0.01 0.01 0.01 0.01 0.01 0.01 0.02 0.01 0.01 0.01 0.01 0.01 0.01 0.00 0.00 0.01 0.02 0.02 0.02 0.03 0.03 0.03 0.02 0.01 0.01 0.01 0.01 0.01 0.01 0.01 0.01 0.02 0.03 0.04 0.05 0.04 0.04 0.03
0.03 0.03 0.02 0.01 0.02 0.01 0.01 0.01 0.01 0.01 0.00 0.01 0.01 0.01 0.00 0.00 0.01 0.01 0.01 0.00 0.00 0.01 0.02 0.03 0.03 0.03 0.02 0.02 0.02 0.01 0.01 0.01 0.01 0.01 0.01 0.01 0.01 0.01 0.02 0.03 0.03 0.03 0.03 0.03
0.03 0.03 0.01 0.01 0.02 0.03 0.01 0.01 0.01 0.00 0.00 0.00 0.00 0.00 0.00 0.00 0.00 0.00 0.01 0.01 0.01 0.01 0.02 0.03 0.03 0.03 0.02 0.02 0.01 0.01 0.01 0.01 0.01 0.01 0.01 0.01 0.01 0.01 0.02 0.02 0.02 0.03 0.03 0.03
0.02 0.02 0.01 0.01 0.01 0.02 0.01 0.01 0.00 0.00 0.00 0.01 0.01 0.00 0.00 0.00 0.00 0.00 0.01 0.01 0.01 0.02 0.02 0.01 0.02 0.02 0.02 0.01 0.01 0.00 0.01 0.01 0.01 0.01 0.01 0.01 0.01 0.01 0.01 0.02 0.02 0.02 0.02 0.03
0.03 0.02 0.01 0.01 0.00 0.00 0.00 0.00 0.00 0.00 0.00 0.01 0.01 0.01 0.00 0.00 0.01 0.00 0.00 0.00 0.01 0.01 0.02 0.02 0.01 0.01 0.02 0.02 0.01 0.00 0.01 0.01 0.01 0.01 0.01 0.01 0.01 0.01 0.01 0.02 0.03 0.03 0.04 0.03
0.03 0.02 0.01 0.00 0.00 0.00 0.00 0.00 0.00 0.01 0.01 0.01 0.02 0.02 0.01 0.02 0.03 0.02 0.02 0.01 0.01 0.01 0.01 0.02 0.02 0.02 0.02 0.03 0.02 0.01 0.01 0.01 0.01 0.01 0.01 0.01 0.00 0.01 0.01 0.01 0.01 0.02 0.03 0.03
0.01 0.00 0.00 0.00 0.00 0.00 0.00 0.00 0.00 0.01 0.01 0.01 0.01 0.02 0.02 0.02 0.02 0.02 0.02 0.02 0.02 0.02 0.02 0.02 0.02 0.01 0.01 0.02 0.02 0.01 0.02 0.02 0.02 0.02 0.01 0.01 0.01 0.01 0.01 0.01 0.02 0.02 0.02 0.03
0.00 0.00 0.00 0.00 0.00 0.00 0.00 0.00 0.00 0.00 0.01 0.01 0.00 0.01 0.02 0.03 0.03 0.03 0.02 0.01 0.02 0.03 0.03 0.02 0.02 0.02 0.02 0.02 0.01 0.01 0.01 0.02 0.03 0.02 0.02 0.01 0.01 0.01 0.02 0.02 0.03 0.03 0.04 0.04
0.00 0.00 0.00 0.00 0.00 0.00 0.00 0.00 0.00 0.00 0.01 0.01 0.00 0.01 0.02 0.02 0.02 0.03 0.02 0.02 0.02 0.02 0.04 0.04 0.03 0.02 0.03 0.03 0.02 0.01 0.01 0.02 0.02 0.02 0.02 0.01 0.01 0.01 0.02 0.02 0.02 0.03 0.04 0.04
0.00 0.00 0.00 0.00 0.00 0.00 0.00 0.00 0.00 0.00 0.00 0.01 0.01 0.01 0.01 0.01 0.01 0.02 0.02 0.01 0.01 0.01 0.02 0.03 0.03 0.02 0.02 0.02 0.02 0.02 0.01 0.01 0.01 0.01 0.01 0.02 0.01 0.01 0.01 0.01 0.01 0.01 0.02 0.02
0.00 0.00 0.00 0.00 0.00 0.00 0.00 0.00 0.00 0.00 0.00 0.00 0.01 0.01 0.01 0.01 0.01 0.01 0.01 0.01 0.01 0.01 0.01 0.01 0.02 0.02 0.01 0.01 0.01 0.01 0.01 0.01 0.01 0.01 0.01 0.01 0.01 0.01 0.01 0.01 0.01 0.01 0.01 0.01
0.00 0.00 0.00 0.00 0.00 0.00 0.00 0.00 0.00 0.00 0.00 0.00 0.00 0.00 0.00 0.01 0.02 0.03 0.02 0.01 0.01 0.01 0.01 0.01 0.01 0.01 0.02 0.01 0.01 0.01 0.01 0.01 0.01 0.01 0.00 0.00 0.01 0.01 0.01 0.01 0.01 0.01 0.01 0.01
0.00 0.00 0.00 0.00 0.00 0.00 0.00 0.00 0.00 0.00 0.00 0.00 0.00 0.00 0.00 0.00 0.01 0.02 0.02 0.02 0.02 0.02 0.02 0.02 0.02 0.02 0.03 0.03 0.02 0.02 0.02 0.02 0.02 0.01 0.01 0.01 0.01 0.01 0.01 0.01 0.01 0.01 0.01 0.01
0.00 0.00 0.00 0.00 0.00 0.00 0.00 0.00 0.00 0.00 0.00 0.00 0.00 0.00 0.00 0.00 0.01 0.01 0.02 0.02 0.02 0.02 0.03 0.03 0.03 0.02 0.03 0.04 0.03 0.03 0.03 0.03 0.03 0.02 0.01 0.01 0.01 0.01 0.01 0.01 0.01 0.01 0.01 0.01
0.00 0.00 0.00 0.00 0.00 0.00 0.00 0.00 0.00 0.00 0.00 0.00 0.00 0.00 0.01 0.01 0.01 0.02 0.02 0.02 0.02 0.02 0.02 0.02 0.02 0.02 0.02 0.03 0.04 0.04 0.04 0.04 0.04 0.03 0.02 0.02 0.01 0.01 0.01 0.01 0.01 0.01 0.01 0.01
0.00 0.00 0.00 0.00 0.00 0.00 0.00 0.00 0.00 0.00 0.00 0.00 0.00 0.01 0.01 0.01 0.02 0.03 0.03 0.03 0.02 0.02 0.02 0.02 0.02 0.02 0.02 0.02 0.02 0.03 0.04 0.05 0.05 0.04 0.04 0.03 0.02 0.02 0.02 0.02 0.02 0.01 0.02 0.02
0.00 0.00 0.00 0.00 0.00 0.00 0.00 0.00 0.00 0.00 0.00 0.01 0.01 0.01 0.01 0.02 0.03 0.04 0.03 0.01 0.01 0.01 0.01 0.01 0.01 0.02 0.02 0.02 0.02 0.02 0.02 0.03 0.04 0.04 0.04 0.03 0.03 0.02 0.02 0.02 0.02 0.02 0.01 0.02
0.00 0.00 0.00 0.00 0.00 0.00 0.00 0.00 0.00 0.00 0.00 0.01 0.01 0.01 0.02 0.02 0.02 0.03 0.02 0.02 0.02 0.02 0.01 0.01 0.02 0.02 0.01 0.01 0.02 0.02 0.02 0.02 0.02 0.02 0.02 0.03 0.02 0.02 0.02 0.02 0.02 0.02 0.02 0.02
0.00 0.00 0.00 0.00 0.01 0.01 0.01 0.00 0.00 0.01 0.01 0.01 0.01 0.01 0.01 0.01 0.01 0.02 0.02 0.03 0.04 0.03 0.02 0.02 0.02 0.02 0.02 0.01 0.01 0.02 0.02 0.02 0.02 0.02 0.02 0.02 0.02 0.02 0.01 0.02 0.02 0.02 0.02 0.02
0.00 0.00 0.00 0.01 0.01 0.01 0.01 0.01 0.01 0.01 0.01 0.01 0.01 0.01 0.01 0.01 0.02 0.03 0.03 0.03 0.04 0.05 0.04 0.03 0.02 0.02 0.02 0.02 0.02 0.02 0.02 0.02 0.02 0.02 0.02 0.02 0.02 0.02 0.02 0.02 0.02 0.02 0.02 0.02
0.00 0.00 0.01 0.01 0.01 0.01 0.02 0.02 0.02 0.01 0.01 0.01 0.01 0.00 0.01 0.01 0.02 0.03 0.03 0.03 0.04 0.04 0.04 0.04 0.03 0.03 0.03 0.03 0.03 0.04 0.04 0.04 0.04 0.03 0.03 0.02 0.02 0.03 0.03 0.02 0.02 0.02 0.03 0.04
MSLP
1010.54 1010.23 1009.89 1009.51 1009.09 1008.62 1008.11 1007.53 1006.88 1006.16 1005.37 1004.51 1003.58 1002.61 1001.61 1000.63 999.68 998.83 998.11 997.57 997.25 997.18 997.35 997.76 998.38 999.16 1000.05 1000.97 1001.88 1002.72 1003.47 1004.13 1004.72 1005.25 1005.78 1006.34 1006.96 1007.67 1008.48 1009.36 1010.32 1011.30 1012.30 1013.27
1009.83 1009.53 1009.18 1008.80 1008.40 1007.99 1007.59 1007.18 1006.78 1006.36 1005.90 1005.39 1004.79 1004.10 1003.32 1002.46 1001.55 1000.63 999.77 999.02 998.45 998.12 998.04 998.22 998.65 999.29 1000.06 1000.92 1001.79 1002.61 1003.36 1004.03 1004.61 1005.15 1005.67 1006.22 1006.82 1007.51 1008.28 1009.13 1010.03 1010.97 1011.92 1012.84
1009.17 1008.89 1008.57 1008.21 1007.84 1007.49 1007.17 1006.91 1006.70 1006.52 1006.34 1006.13 1005.84 1005.42 1004.85 1004.14 1003.29 1002.36 1001.40 1000.50 999.72 999.15 998.83 998.78 999.00 999.45 1000.09 1000.84 1001.64 1002.43 1003.17 1003.84 1004.44 1004.99 1005.53 1006.09 1006.69 1007.36 1008.11 1008.93 1009.79 1010.68 1011.57 1012.45
1008.72 1008.48 1008.18 1007.84 1007.49 1007.17 1006.91 1006.74 1006.65 1006.64 1006.67 1006.69 1006.63 1006.44 1006.07 1005.52 1004.77 1003.87 1002.88 1001.88 1000.96 1000.20 999.67 999.40 999.41 999.67 1000.14 1000.76 1001.46 1002.18 1002.89 1003.55 1004.17 1004.74 1005.31 1005.89 1006.52 1007.20 1007.94 1008.74 1009.57 1010.42 1011.27 1012.09
1008.52 1008.30 1008.03 1007.70 1007.35 1007.04 1006.80 1006.65 1006.63 1006.70 1006.85 1007.01 1007.12 1007.10 1006.91 1006.51 1005.88 1005.06 1004.10 1003.08 1002.08 1001.20 1000.51 1000.06 999.87 999.93 1000.22 1000.68 1001.26 1001.89 1002.54 1003.18 1003.80 1004.40 1005.00 1005.63 1006.29 1006.99 1007.75 1008.54 1009.36 1010.18 1010.99 1011.77
1008.51 1008.31 1008.03 1007.70 1007.35 1007.02 1006.76 1006.60 1006.57 1006.67 1006.85 1007.09 1007.29 1007.40 1007.35 1007.08 1006.59 1005.88 1005.00 1004.02 1003.01 1002.08 1001.29 1000.70 1000.35 1000.23 1000.34 1000.64 1001.07 1001.59 1002.17 1002.76 1003.37 1003.99 1004.63 1005.30 1006.00 1006.74 1007.52 1008.32 1009.13 1009.94 1010.72 1011.47
1008.58 1008.36 1008.07 1007.73 1007.36 1007.00 1006.70 1006.51 1006.45 1006.51 1006.69 1006.94 1007.18 1007.36 1007.41 1007.26 1006.90 1006.33 1005.56 1004.67 1003.72 1002.79 1001.96 1001.28 1000.81 1000.55 1000.49 1000.63 1000.92 1001.32 1001.81 1002.35 1002.94 1003.56 1004.23 1004.93 1005.68 1006.46 1007.27 1008.08 1008.90 1009.69 1010.45 1011.17
1008.58 1008.33 1008.01 1007.66 1007.27 1006.89 1006.57 1006.34 1006.23 1006.25 1006.38 1006.61 1006.86 1007.07 1007.17 1007.12 1006.88 1006.44 1005.81 1005.03 1004.18 1003.30 1002.49 1001.78 1001.23 1000.86 1000.68 1000.68 1000.84 1001.12 1001.52 1002.00 1002.55 1003.17 1003.85 1004.59 1005.37 1006.18 1007.01 1007.84 1008.65 1009.43 1010.17 1010.86
1008.41 1008.11 1007.77 1007.41 1007.03 1006.65 1006.32 1006.07 1005.93 1005.91 1006.00 1006.18 1006.40 1006.61 1006.75 1006.77 1006.62 1006.29 1005.80 1005.16 1004.41 1003.63 1002.87 1002.18 1001.60 1001.17 1000.90 1000.80 1000.84 1001.03 1001.34 1001.76 1002.27 1002.88 1003.56 1004.30 1005.10 1005.93 1006.77 1007.60 1008.41 1009.17 1009.88 1010.55
1008.01 1007.67 1007.33 1006.98 1006.63 1006.29 1005.99 1005.75 1005.60 1005.56 1005.61 1005.75 1005.93 1006.12 1006.26 1006.31 1006.23 1006.00 1005.62 1005.10 1004.49 1003.81 1003.13 1002.49 1001.93 1001.48 1001.16 1000.98 1000.95 1001.06 1001.30 1001.66 1002.13 1002.70 1003.37 1004.10 1004.90 1005.72 1006.56 1007.38 1008.17 1008.91 1009.60 1010.24
1007.42 1007.07 1006.74 1006.44 1006.15 1005.87 1005.63 1005.45 1005.32 1005.28 1005.31 1005.42 1005.56 1005.71 1005.83 1005.88 1005.83 1005.66 1005.37 1004.96 1004.46 1003.89 1003.31 1002.74 1002.22 1001.79 1001.46 1001.25 1001.17 1001.22 1001.40 1001.70 1002.13 1002.66 1003.29 1004.00 1004.77 1005.58 1006.39 1007.19 1007.95 1008.67 1009.33 1009.94
1006.74 1006.39 1006.11 1005.88 1005.67 1005.50 1005.35 1005.24 1005.17 1005.15 1005.19 1005.26 1005.36 1005.46 1005.54 1005.57 1005.52 1005.38 1005.15 1004.82 1004.41 1003.94 1003.45 1002.96 1002.51 1002.11 1001.79 1001.58 1001.47 1001.48 1001.61 1001.87 1002.24 1002.72 1003.31 1003.97 1004.70 1005.47 1006.24 1007.01 1007.75 1008.44 1009.08 1009.67
1006.07 1005.77 1005.56 1005.42 1005.32 1005.26 1005.22 1005.20 1005.19 1005.21 1005.25 1005.31 1005.37 1005.42 1005.45 1005.43 1005.36 1005.23 1005.02 1004.74 1004.40 1004.01 1003.60 1003.19 1002.80 1002.45 1002.16 1001.95 1001.83 1001.81 1001.90 1002.10 1002.42 1002.84 1003.36 1003.97 1004.64 1005.36 1006.09 1006.83 1007.54 1008.21 1008.84 1009.42
1005.52 1005.30 1005.17 1005.13 1005.14 1005.19 1005.26 1005.33 1005.39 1005.45 1005.50 1005.54 1005.56 1005.57 1005.54 1005.48 1005.37 1005.22 1005.01 1004.76 1004.47 1004.14 1003.80 1003.45 1003.12 1002.81 1002.55 1002.35 1002.21 1002.16 1002.21 1002.35 1002.60 1002.95 1003.40 1003.94 1004.55 1005.21 1005.91 1006.61 1007.30 1007.96 1008.59 1009.18
1005.14 1005.01 1004.98 1005.04 1005.16 1005.31 1005.46 1005.61 1005.73 1005.82 1005.88 1005.90 1005.89 1005.85 1005.77 1005.66 1005.52 1005.34 1005.13 1004.90 1004.63 1004.35 1004.05 1003.75 1003.46 1003.18 1002.94 1002.73 1002.58 1002.49 1002.48 1002.56 1002.73 1003.01 1003.38 1003.85 1004.39 1005.00 1005.66 1006.33 1007.01 1007.68 1008.32 1008.93
1004.93 1004.90 1004.97 1005.12 1005.33 1005.55 1005.77 1005.96 1006.12 1006.22 1006.28 1006.29 1006.26 1006.18 1006.06 1005.92 1005.75 1005.56 1005.34 1005.11 1004.87 1004.61 1004.34 1004.08 1003.81 1003.54 1003.29 1003.07 1002.89 1002.76 1002.69 1002.70 1002.79 1002.99 1003.28 1003.68 1004.16 1004.72 1005.33 1005.99 1006.67 1007.34 1008.00 1008.64
1004.85 1004.92 1005.08 1005.30 1005.56 1005.83 1006.08 1006.29 1006.46 1006.57 1006.62 1006.62 1006.56 1006.47 1006.33 1006.17 1005.99 1005.79 1005.58 1005.36 1005.13 1004.90 1004.65 1004.39 1004.13 1003.87 1003.61 1003.36 1003.14 1002.95 1002.82 1002.76 1002.78 1002.89 1003.11 1003.43 1003.85 1004.36 1004.94 1005.58 1006.25 1006.94 1007.62 1008.27
1004.83 1005.00 1005.23 1005.50 1005.78 1006.06 1006.31 1006.52 1006.68 1006.78 1006.82 1006.80 1006.74 1006.63 1006.50 1006.34 1006.17 1005.98 1005.79 1005.59 1005.38 1005.16 1004.93 1004.68 1004.42 1004.14 1003.86 1003.58 1003.31 1003.07 1002.88 1002.75 1002.70 1002.74 1002.88 1003.14 1003.50 1003.96 1004.50 1005.12 1005.77 1006.46 1007.14 1007.81
1004.83 1005.06 1005.34 1005.63 1005.91 1006.17 1006.40 1006.58 1006.70 1006.78 1006.80 1006.78 1006.71 1006.62 1006.51 1006.38 1006.23 1006.08 1005.92 1005.75 1005.56 1005.36 1005.14 1004.90 1004.63 1004.34 1004.03 1003.72 1003.41 1003.13 1002.88 1002.69 1002.58 1002.55 1002.63 1002.83 1003.13 1003.54 1004.04 1004.61 1005.24 1005.91 1006.58 1007.24
1004.78 1005.06 1005.35 1005.64 1005.90 1006.12 1006.30 1006.43 1006.52 1006.56 1006.57 1006.54 1006.49 1006.43 1006.35 1006.26 1006.16 1006.05 1005.94 1005.80 1005.65 1005.47 1005.26 1005.02 1004.75 1004.44 1004.12 1003.78 1003.44 1003.12 1002.83 1002.60 1002.43 1002.36 1002.39 1002.52 1002.77 1003.13 1003.57 1004.10 1004.68 1005.30 1005.94 1006.58
1004.67 1004.97 1005.26 1005.51 1005.73 1005.90 1006.02 1006.10 1006.15 1006.16 1006.16 1006.13 1006.11 1006.07 1006.04 1006.00 1005.96 1005.91 1005.84 1005.74 1005.62 1005.47 1005.27 1005.03 1004.76 1004.45 1004.11 1003.75 1003.39 1003.05 1002.73 1002.47 1002.27 1002.16 1002.14 1002.23 1002.42 1002.72 1003.10 1003.57 1004.09 1004.66 1005.25 1005.84
1004.49 1004.78 1005.04 1005.25 1005.41 1005.52 1005.59 1005.62 1005.62 1005.62 1005.60 1005.60 1005.60 1005.61 1005.63 1005.65 1005.66 1005.66 1005.64 1005.59 1005.50 1005.36 1005.18 1004.94 1004.67 1004.35 1004.00 1003.64 1003.26 1002.90 1002.57 1002.29 1002.07 1001.92 1001.87 1001.92 1002.06 1002.30 1002.62 1003.02 1003.48 1003.99 1004.52 1005.05
1004.22 1004.49 1004.70 1004.86 1004.97 1005.02 1005.03 1005.02 1005.00 1004.98 1004.98 1004.99 1005.03 1005.09 1005.16 1005.24 1005.31 1005.36 1005.38 1005.36 1005.29 1005.17 1004.99 1004.76 1004.48 1004.15 1003.79 1003.42 1003.04 1002.67 1002.32 1002.03 1001.79 1001.62 1001.54 1001.55 1001.65 1001.84 1002.11 1002.45 1002.85 1003.29 1003.77 1004.25
1003.87 1004.09 1004.25 1004.36 1004.41 1004.41 1004.38 1004.35 1004.31 1004.30 1004.32 1004.37 1004.46 1004.57 1004.70 1004.83 1004.95 1005.04 1005.10 1005.10 1005.05 1004.93 1004.75 1004.50 1004.21 1003.87 1003.50 1003.10 1002.71 1002.33 1001.97 1001.66 1001.41 1001.22 1001.11 1001.09 1001.15 1001.30 1001.52 1001.82 1002.17 1002.57 1003.00 1003.45
1003.42 1003.59 1003.70 1003.75 1003.76 1003.73 1003.68 1003.63 1003.61 1003.62 1003.68 1003.77 1003.91 1004.08 1004.27 1004.45 1004.62 1004.75 1004.83 1004.85 1004.80 1004.68 1004.48 1004.22 1003.90 1003.53 1003.14 1002.72 1002.30 1001.89 1001.51 1001.18 1000.90 1000.69 1000.56 1000.51 1000.54 1000.66 1000.85 1001.11 1001.43 1001.80 1002.22 1002.66
1002.88 1003.00 1003.06 1003.07 1003.04 1002.99 1002.94 1002.91 1002.91 1002.97 1003.07 1003.22 1003.43 1003.66 1003.90 1004.14 1004.35 1004.51 1004.62 1004.65 1004.60 1004.46 1004.24 1003.96 1003.60 1003.20 1002.76 1002.30 1001.84 1001.40 1000.98 1000.61 1000.30 1000.06 999.89 999.81 999.82 999.90 1000.07 1000.31 1000.63 1000.99 1001.41 1001.85
1002.27 1002.34 1002.35 1002.33 1002.28 1002.23 1002.20 1002.20 1002.24 1002.35 1002.52 1002.74 1003.01 1003.30 1003.61 1003.90 1004.15 1004.35 1004.48 1004.52 1004.46 1004.32 1004.08 1003.76 1003.37 1002.92 1002.44 1001.93 1001.42 1000.92 1000.45 1000.03 999.66 999.37 999.16 999.04 999.01 999.07 999.22 999.45 999.76 1000.13 1000.56 1001.03
Thickness
5681 5685 5686 5684 5684 5688 5686 5685 5679 5684 5687 5692 5695 5695 5697 5697 5695 5692 5690 5689 5687 5684 5682 5680 5679 5678 5678 5677 5675 5674 5671 5669 5666 5664 5662 5659 5656 5653 5651 5648 5645 5642 5640 5637
5670 5680 5681 5678 5683 5684 5685 5685 5683 5684 5684 5696 5697 5695 5691 5690 5688 5684 5683 5683 5682 5680 5677 5675 5674 5673 5672 5671 5670 5668 5665 5662 5661 5658 5655 5652 5649 5647 5644 5641 5639 5636 5633 5631
5656 5672 5671 5663 5677 5679 5680 5685 5682 5675 5680 5687 5684 5684 5682 5681 5680 5678 5677 5676 5675 5674 5673 5672 5671 5670 5668 5667 5666 5663 5660 5657 5655 5652 5648 5645 5643 5640 5637 5634 5632 5630 5628 5626
5649 5654 5642 5665 5685 5683 5678 5678 5680 5679 5679 5679 5677 5678 5678 5676 5673 5671 5669 5668 5668 5668 5667 5668 5668 5667 5664 5662 5660 5657 5654 5652 5649 5646 5643 5640 5637 5634 5632 5629 5626 5624 5623 5622
5642 5639 5647 5663 5673 5674 5667 5665 5675 5673 5673 5671 5671 5669 5666 5669 5668 5665 5663 5663 5663 5663 5662 5662 5662 5661 5658 5655 5653 5650 5648 5646 5644 5641 5637 5634 5631 5628 5626 5624 5621 5619 5618 5616
5638 5630 5630 5649 5664 5672 5664 5651 5665 5667 5664 5663 5661 5648 5651 5660 5660 5659 5658 5657 5657 5657 5657 5655 5655 5654 5651 5647 5645 5643 5642 5641 5639 5636 5632 5628 5626 5623 5621 5619 5617 5615 5613 5611
5629 5627 5635 5649 5658 5660 5638 5638 5656 5659 5657 5654 5649 5647 5650 5653 5652 5650 5650 5649 5649 5649 5648 5648 5648 5646 5642 5640 5638 5638 5637 5635 5632 5630 5627 5624 5621 5618 5615 5613 5611 5610 5608 5606
5625 5619 5624 5644 5646 5639 5638 5648 5649 5648 5648 5646 5645 5644 5644 5643 5642 5642 5641 5641 5641 5640 5639 5640 5640 5638 5635 5633 5634 5632 5630 5627 5625 5623 5622 5619 5615 5612 5610 5608 5606 5604 5602 5600
5624 5623 5634 5640 5638 5639 5641 5638 5639 5639 5639 5638 5636 5635 5635 5634 5633 5633 5633 5632 5632 5631 5631 5632 5632 5630 5627 5627 5627 5625 5622 5620 5618 5617 5615 5613 5609 5606 5604 5602 5600 5598 5596 5594
5620 5624 5629 5631 5633 5633 5632 5630 5631 5633 5632 5630 5627 5626 5625 5625 5625 5625 5625 5624 5624 5623 5622 5623 5623 5622 5621 5620 5620 5618 5615 5613 5612 5610 5608 5605 5603 5601 5598 5596 5594 5592 5591 5589
5612 5616 5619 5621 5622 5623 5623 5624 5624 5624 5623 5621 5620 5618 5618 5617 5617 5617 5617 5617 5617 5616 5615 5615 5616 5614 5614 5613 5612 5610 5609 5607 5605 5603 5601 5598 5596 5593 5592 5590 5588 5586 5585 5584
5602 5609 5609 5610 5616 5618 5615 5614 5615 5614 5613 5613 5612 5611 5610 5609 5610 5610 5610 5609 5609 5608 5608 5608 5608 5608 5608 5607 5605 5603 5601 5600 5597 5595 5593 5591 5588 5585 5584 5583 5582 5581 5579 5577
5607 5608 5607 5607 5609 5610 5608 5607 5607 5606 5605 5604 5605 5604 5604 5603 5603 5603 5603 5602 5602 5601 5601 5601 5600 5600 5600 5600 5598 5595 5593 5591 5589 5588 5586 5583 5581 5578 5576 5574 5574 5573 5572 5570
5602 5601 5598 5599 5599 5600 5600 5600 5599 5599 5598 5598 5597 5597 5596 5595 5595 5595 5594 5594 5594 5594 5594 5593 5592 5591 5592 5591 5588 5586 5584 5583 5581 5579 5577 5576 5574 5572 5570 5567 5565 5564 5563 5562
5594 5594 5592 5592 5592 5591 5592 5591 5589 5589 5589 5589 5589 5588 5588 5587 5586 5586 5587 5587 5586 5586 5585 5584 5583 5582 5582 5581 5579 5577 5575 5573 5572 5571 5569 5567 5566 5565 5563 5561 5559 5558 5555 5552
5586 5586 5584 5582 5582 5582 5582 5582 5580 5580 5580 5580 5580 5580 5580 5580 5579 5579 5579 5579 5578 5577 5576 5575 5574 5574 5573 5572 5570 5568 5566 5566 5564 5562 5560 5558 5557 5555 5554 5553 5551 5550 5548 5545
5575 5574 5573 5572 5573 5573 5573 5573 5573 5573 5573 5572 5573 5573 5573 5572 5571 5570 5571 5571 5571 5570 5570 5568 5566 5565 5564 5562 5561 5559 5558 5556 5555 5553 5551 5550 5549 5547 5546 5544 5544 5542 5541 5539
5571 5569 5568 5567 5565 5565 5565 5565 5565 5565 5565 5566 5566 5566 5564 5564 5563 5562 5563 5564 5563 5563 5561 5560 5558 5556 5554 5553 5552 5550 5548 5547 5546 5544 5543 5541 5540 5539 5538 5536 5535 5534 5532 5530
5562 5561 5560 5559 5559 5558 5557 5557 5557 5558 5558 5558 5558 5557 5556 5556 5556 5555 5555 5555 5554 5552 5552 5551 5549 5547 5545 5544 5542 5540 5539 5538 5537 5535 5533 5532 5530 5529 5529 5527 5526 5525 5524 5522
5553 5552 5552 5551 5552 5551 5550 5550 5550 5550 5550 5550 5549 5548 5548 5547 5547 5546 5546 5544 5543 5543 5542 5541 5539 5537 5536 5534 5532 5531 5530 5529 5527 5526 5524 5522 5520 5520 5519 5518 5517 5517 5516 5514
5545 5544 5543 5543 5543 5544 5543 5542 5542 5541 5541 5541 5540 5539 5539 5538 5538 5537 5535 5534 5534 5532 5532 5530 5529 5527 5525 5524 5522 5521 5521 5519 5518 5516 5515 5513 5511 5511 5510 5509 5508 5507 5506 5505
5538 5537 5536 5536 5536 5536 5536 5535 5534 5534 5533 5532 5532 5531 5529 5528 5528 5527 5526 5524 5523 5521 5520 5520 5519 5517 5516 5514 5512 5512 5512 5510 5509 5507 5506 5505 5504 5503 5501 5500 5499 5498 5496 5495
5531 5530 5529 5529 5529 5529 5528 5528 5527 5526 5525 5524 5522 5521 5520 5519 5518 5516 5515 5515 5513 5511 5510 5509 5508 5508 5506 5504 5504 5504 5503 5502 5500 5499 5497 5496 5495 5494 5492 5491 5490 5488 5486 5485
5524 5523 5523 5523 5522 5521 5520 5520 5519 5519 5517 5516 5514 5512 5511 5509 5509 5508 5506 5505 5503 5502 5501 5500 5499 5498 5497 5496 5496 5495 5495 5493 5492 5491 5489 5488 5486 5485 5483 5482 5480 5478 5477 5475
5516 5516 5515 5514 5513 5513 5513 5513 5512 5510 5509 5507 5506 5504 5503 5501 5499 5498 5496 5495 5494 5492 5491 5491 5491 5489 5488 5488 5488 5487 5486 5485 5484 5482 5481 5479 5478 5476 5474 5472 5470 5469 5467 5466
5508 5507 5506 5506 5506 5505 5504 5503 5502 5501 5500 5498 5497 5495 5493 5491 5490 5488 5487 5486 5485 5484 5482 5482 5481 5481 5480 5480 5479 5478 5478 5477 5476 5474 5473 5471 5469 5466 5464 5462 5461 5459 5457 5456
5499 5498 5497 5497 5497 5496 5496 5495 5493 5492 5491 5489 5487 5485 5483 5482 5481 5479 5478 5477 5475 5474 5474 5474 5473 5473 5472 5472 5471 5470 5469 5468 5466 5465 5463 5461 5459 5457 5455 5453 5451 5449 5448 5446